QFA41 YSSY-OBBI

Flight info

Callsign QFA41
Flight time N/A
Altitude 32000
Route KADOM A576 PKS J141 LEC T21 CARTS/M080F340 T21 PD/M080F360 N509 TATOD/M080F380 N509 ELATI N640 KAT P570 EMURU N563 ALPOB L768 ORDIG
Aircraft A332/H-SDFGIRWXY/C

Departure

Time 2026-05-04 09:35
Airport Sydney Kingsford Smith International Airport (YSSY)

Arrival

Time N/A
Airport Bahrain International Airport (OBBI)
Time Latitude Longitude Altitude Speed Heading
2026-05-04 08:41 -33.93926 151.16986 30 ft 0 kts 255°
2026-05-04 08:42 -33.93795 151.16954 31 ft 0 kts 255°
2026-05-04 08:42 -33.93797 151.16952 31 ft 0 kts 255°
2026-05-04 09:08 -33.93791 151.16977 31 ft 3 kts 255°
2026-05-04 09:08 -33.93786 151.17003 31 ft 3 kts 255°
2026-05-04 09:08 -33.93780 151.17029 31 ft 3 kts 255°
2026-05-04 09:09 -33.93775 151.17050 31 ft 1 kts 220°
2026-05-04 09:09 -33.93771 151.17056 31 ft 2 kts 165°
2026-05-04 09:09 -33.93757 151.17052 31 ft 0 kts 168°
2026-05-04 09:12 -33.93781 151.17058 31 ft 8 kts 169°
2026-05-04 09:12 -33.93845 151.17071 31 ft 11 kts 170°
2026-05-04 09:14 -33.94061 151.17248 30 ft 0 kts 168°
2026-05-04 09:15 -33.94087 151.17255 30 ft 6 kts 168°
2026-05-04 09:17 -33.94996 151.17489 25 ft 22 kts 168°
2026-05-04 09:18 -33.95151 151.17530 24 ft 23 kts 168°
2026-05-04 09:18 -33.95332 151.17578 23 ft 29 kts 167°
2026-05-04 09:18 -33.95544 151.17631 22 ft 28 kts 167°
2026-05-04 09:18 -33.95681 151.17668 22 ft 12 kts 168°
2026-05-04 09:19 -33.95730 151.17680 22 ft 4 kts 168°
2026-05-04 09:19 -33.95748 151.17685 21 ft 2 kts 168°
2026-05-04 09:19 -33.95769 151.17690 21 ft 7 kts 168°
2026-05-04 09:19 -33.95850 151.17714 21 ft 15 kts 159°
2026-05-04 09:20 -33.95885 151.17758 21 ft 0 kts 114°
2026-05-04 09:34 -33.95842 151.17914 22 ft 0 kts 343°
2026-05-04 09:34 -33.95839 151.17913 22 ft 6 kts 343°
2026-05-04 09:34 -33.95631 151.17858 23 ft 55 kts 348°
2026-05-04 09:34 -33.95109 151.17723 25 ft 98 kts 348°
2026-05-04 09:35 -33.94307 151.17514 29 ft 135 kts 349°
2026-05-04 09:35 -33.93297 151.17241 62 ft 160 kts 350°
2026-05-04 09:35 -33.92193 151.16935 359 ft 162 kts 351°
2026-05-04 09:35 -33.91077 151.16650 685 ft 165 kts 351°
2026-05-04 09:37 -33.85642 151.09129 2743 ft 181 kts 308°
2026-05-04 09:37 -33.84949 151.07857 3005 ft 182 kts 308°
2026-05-04 09:38 -33.84254 151.06581 3234 ft 186 kts 308°
2026-05-04 09:38 -33.83518 151.05243 3370 ft 200 kts 308°
2026-05-04 09:38 -33.82716 151.03805 3520 ft 215 kts 308°
2026-05-04 09:38 -33.82130 151.02077 3682 ft 234 kts 286°
2026-05-04 09:39 -33.81800 151.00088 3931 ft 252 kts 284°
2026-05-04 09:39 -33.81471 150.97946 4234 ft 268 kts 283°
2026-05-04 09:39 -33.81132 150.95713 4720 ft 276 kts 283°
2026-05-04 09:39 -33.80789 150.93446 5310 ft 279 kts 283°
2026-05-04 09:40 -33.80442 150.91149 5975 ft 280 kts 283°
2026-05-04 09:40 -33.80093 150.88844 6607 ft 282 kts 284°
2026-05-04 09:40 -33.79742 150.86527 7200 ft 284 kts 284°
2026-05-04 09:40 -33.79386 150.84183 7785 ft 287 kts 284°
2026-05-04 09:41 -33.79027 150.81820 8361 ft 290 kts 284°
2026-05-04 09:42 -33.76376 150.64463 11695 ft 327 kts 284°
2026-05-04 09:43 -33.75960 150.61751 12077 ft 337 kts 284°
2026-05-04 09:43 -33.75530 150.58956 12459 ft 346 kts 284°
2026-05-04 09:43 -33.75088 150.56081 12842 ft 356 kts 284°
2026-05-04 09:43 -33.74643 150.53185 13217 ft 365 kts 284°
2026-05-04 09:44 -33.74177 150.50157 13599 ft 374 kts 284°
2026-05-04 09:44 -33.73699 150.47054 13981 ft 384 kts 284°
2026-05-04 09:44 -33.73211 150.43881 14363 ft 393 kts 284°
2026-05-04 09:46 -33.68585 150.21030 18204 ft 414 kts 292°
2026-05-04 09:46 -33.67691 150.17746 18718 ft 417 kts 292°
2026-05-04 09:46 -33.66791 150.14443 19219 ft 420 kts 292°
2026-05-04 09:47 -33.65880 150.11106 19710 ft 424 kts 292°
2026-05-04 09:47 -33.64960 150.07737 20191 ft 427 kts 292°
2026-05-04 09:49 -33.58324 149.83556 23157 ft 448 kts 293°
2026-05-04 09:49 -33.57350 149.80026 23525 ft 450 kts 293°
2026-05-04 09:49 -33.56368 149.76468 23881 ft 453 kts 293°
2026-05-04 09:51 -33.50332 149.54697 25594 ft 471 kts 292°
2026-05-04 09:51 -33.49298 149.50982 25884 ft 472 kts 292°
2026-05-04 09:51 -33.48261 149.47259 26163 ft 474 kts 292°
2026-05-04 09:51 -33.47216 149.43514 26423 ft 476 kts 292°
2026-05-04 09:52 -33.46171 149.39772 26668 ft 478 kts 292°
2026-05-04 09:52 -33.45117 149.36005 26902 ft 480 kts 292°
2026-05-04 09:52 -33.44061 149.32233 27126 ft 481 kts 292°
2026-05-04 09:52 -33.42999 149.28446 27341 ft 483 kts 292°
2026-05-04 09:53 -33.41930 149.24637 27547 ft 484 kts 292°
2026-05-04 09:53 -33.40858 149.20824 27743 ft 486 kts 292°
2026-05-04 09:53 -33.39783 149.17002 27931 ft 487 kts 292°
2026-05-04 09:53 -33.38693 149.13136 28111 ft 489 kts 292°
2026-05-04 09:54 -33.37621 149.09337 28280 ft 490 kts 292°
2026-05-04 09:54 -33.36534 149.05487 28447 ft 491 kts 292°
2026-05-04 09:54 -33.35440 149.01619 28634 ft 491 kts 292°
2026-05-04 09:54 -33.34352 148.97776 28833 ft 491 kts 292°
2026-05-04 09:55 -33.33259 148.93922 29030 ft 491 kts 292°
2026-05-04 09:55 -33.32167 148.90072 29218 ft 491 kts 292°
2026-05-04 09:55 -33.31074 148.86226 29396 ft 491 kts 292°
2026-05-04 09:55 -33.29981 148.82384 29564 ft 490 kts 292°
2026-05-04 09:56 -33.28887 148.78545 29724 ft 490 kts 293°
2026-05-04 09:56 -33.27801 148.74737 29945 ft 488 kts 293°
2026-05-04 09:56 -33.26692 148.70852 30054 ft 489 kts 293°
2026-05-04 09:57 -33.24505 148.63215 30210 ft 492 kts 292°
2026-05-04 09:57 -33.22292 148.55501 30424 ft 492 kts 292°
2026-05-04 09:57 -33.21181 148.51637 30572 ft 492 kts 292°
2026-05-04 09:58 -33.20080 148.47809 30686 ft 492 kts 292°
2026-05-04 09:58 -33.18967 148.43945 30803 ft 493 kts 293°
2026-05-04 09:58 -33.17859 148.40105 30923 ft 493 kts 293°
2026-05-04 10:00 -33.08417 148.01371 32061 ft 497 kts 288°
2026-05-04 10:00 -33.05011 147.85606 32429 ft 498 kts 289°
2026-05-04 10:04 -32.55618 145.67676 32439 ft 484 kts 287°
2026-05-04 10:04 -32.48339 145.37078 32439 ft 484 kts 287°
2026-05-04 10:05 -32.40979 145.06496 32439 ft 485 kts 288°
2026-05-04 10:05 -32.33568 144.76051 32439 ft 485 kts 288°
2026-05-04 10:06 -32.26036 144.45450 32439 ft 485 kts 288°
2026-05-04 10:06 -32.18492 144.15133 32439 ft 485 kts 288°
2026-05-04 10:08 -31.91574 143.09610 32340 ft 479 kts 288°
2026-05-04 10:08 -31.83756 142.79745 32341 ft 479 kts 288°
2026-05-04 10:09 -31.75900 142.50046 32341 ft 479 kts 288°
2026-05-04 10:09 -31.67968 142.20365 32342 ft 479 kts 288°
2026-05-04 10:10 -31.59946 141.90645 32342 ft 479 kts 288°
2026-05-04 10:10 -31.51868 141.61011 32342 ft 479 kts 289°
2026-05-04 10:11 -31.43695 141.31315 32343 ft 479 kts 289°
2026-05-04 10:11 -31.35496 141.01785 32343 ft 479 kts 289°
2026-05-04 10:12 -31.27181 140.72404 32344 ft 479 kts 289°
2026-05-04 10:12 -31.18759 140.42942 32344 ft 479 kts 289°
2026-05-04 10:13 -31.10290 140.13594 32344 ft 479 kts 290°
2026-05-04 10:13 -31.01769 139.84346 32318 ft 476 kts 289°
2026-05-04 10:14 -30.93238 139.55333 32318 ft 476 kts 289°
2026-05-04 10:16 -30.58051 138.39831 32319 ft 476 kts 295°
2026-05-04 10:16 -30.46889 138.12136 32319 ft 476 kts 295°
2026-05-04 10:17 -30.35656 137.84499 32319 ft 476 kts 296°
2026-05-04 10:19 -29.96081 136.88703 33470 ft 474 kts 295°
2026-05-04 10:19 -29.90325 136.74964 33670 ft 474 kts 295°
2026-05-04 10:19 -29.84653 136.61472 33867 ft 474 kts 295°
2026-05-04 10:19 -29.78863 136.47744 34068 ft 473 kts 295°
2026-05-04 10:20 -29.73138 136.34211 34266 ft 473 kts 295°
2026-05-04 10:20 -29.69114 136.24728 34312 ft 473 kts 296°
2026-05-04 10:20 -29.62432 136.09154 34312 ft 473 kts 296°
2026-05-04 10:21 -29.50813 135.82232 34304 ft 472 kts 295°
2026-05-04 10:21 -29.39149 135.55393 34304 ft 471 kts 295°
2026-05-04 10:22 -29.21579 135.15292 34304 ft 471 kts 296°
2026-05-04 10:23 -29.09932 134.88923 34304 ft 471 kts 296°
2026-05-04 10:25 -28.64439 133.87620 34304 ft 472 kts 296°
2026-05-04 10:25 -28.50366 133.56811 34304 ft 472 kts 296°
2026-05-04 10:26 -28.38274 133.30520 34304 ft 472 kts 296°
2026-05-04 10:26 -28.26280 133.04607 34304 ft 472 kts 297°
2026-05-04 10:27 -28.14075 132.78400 34304 ft 472 kts 297°
2026-05-04 10:27 -28.01825 132.52257 34304 ft 472 kts 297°
2026-05-04 10:28 -27.89705 132.26545 34304 ft 472 kts 297°
2026-05-04 10:28 -27.77340 132.00460 34305 ft 472 kts 297°
2026-05-04 10:29 -27.65332 131.75296 34299 ft 470 kts 297°
2026-05-04 10:29 -27.53077 131.49807 34299 ft 470 kts 297°
2026-05-04 10:30 -27.40998 131.24830 34299 ft 470 kts 297°
2026-05-04 10:30 -27.28470 130.99076 34299 ft 470 kts 297°
2026-05-04 10:31 -27.15902 130.73393 34299 ft 470 kts 297°
2026-05-04 10:32 -26.74607 129.90047 34299 ft 471 kts 298°
2026-05-04 10:33 -26.62457 129.65817 34299 ft 471 kts 298°
2026-05-04 10:33 -26.49673 129.40459 34299 ft 471 kts 298°
2026-05-04 10:34 -26.37441 129.16320 34299 ft 471 kts 298°
2026-05-04 10:34 -26.25937 128.93722 34299 ft 471 kts 298°
2026-05-04 10:35 -26.13030 128.68560 34299 ft 471 kts 298°
2026-05-04 10:35 -26.01418 128.46045 34299 ft 471 kts 298°
2026-05-04 10:36 -25.88437 128.21007 34299 ft 471 kts 298°
2026-05-04 10:36 -25.76980 127.99021 34299 ft 471 kts 298°
2026-05-04 10:37 -25.64829 127.75819 34299 ft 471 kts 299°
2026-05-04 10:37 -25.53497 127.54284 34299 ft 471 kts 299°
2026-05-04 10:39 -25.08169 126.69130 34299 ft 471 kts 299°
2026-05-04 10:40 -24.96121 126.46752 34299 ft 471 kts 299°
2026-05-04 10:40 -24.85121 126.26411 34299 ft 471 kts 300°
2026-05-04 10:41 -24.71715 126.01738 34299 ft 471 kts 300°
2026-05-04 10:41 -24.61925 125.83801 34295 ft 470 kts 299°
2026-05-04 10:42 -24.49886 125.61832 34295 ft 470 kts 299°
2026-05-04 10:42 -24.37527 125.39380 34295 ft 470 kts 299°
2026-05-04 10:43 -24.25701 125.17993 34295 ft 470 kts 300°
2026-05-04 10:45 -23.74479 124.26387 34295 ft 470 kts 300°
2026-05-04 10:45 -23.62572 124.05317 34295 ft 470 kts 300°
2026-05-04 10:46 -23.50567 123.84155 34295 ft 470 kts 300°
2026-05-04 10:46 -23.37140 123.60648 34295 ft 470 kts 300°
2026-05-04 10:47 -23.22994 123.35998 34295 ft 470 kts 300°
2026-05-04 10:47 -23.11320 123.15743 34295 ft 470 kts 300°
2026-05-04 10:49 -22.60192 122.27934 34296 ft 470 kts 301°
2026-05-04 10:50 -22.53627 122.16760 34296 ft 470 kts 301°
2026-05-04 10:52 -22.01950 121.29719 34296 ft 470 kts 301°
2026-05-04 10:52 -21.91267 121.11917 34296 ft 470 kts 301°
2026-05-04 10:54 -21.39902 120.27121 34296 ft 470 kts 301°
2026-05-04 10:56 -20.89723 119.45500 34954 ft 469 kts 301°
2026-05-04 10:56 -20.82598 119.34003 35151 ft 468 kts 301°
2026-05-04 10:56 -20.75411 119.22429 35350 ft 468 kts 301°
2026-05-04 10:57 -20.68186 119.10815 35550 ft 468 kts 301°
2026-05-04 10:57 -20.61059 118.99381 35747 ft 467 kts 301°
2026-05-04 10:57 -20.53858 118.87850 35947 ft 467 kts 301°
2026-05-04 10:57 -20.46621 118.76280 36147 ft 467 kts 301°
2026-05-04 10:58 -20.39565 118.65016 36334 ft 466 kts 301°
2026-05-04 10:58 -20.35360 118.57531 36347 ft 465 kts 297°
2026-05-04 10:59 -20.24530 118.37203 36442 ft 466 kts 298°
2026-05-04 10:59 -20.18360 118.25667 37511 ft 452 kts 298°
2026-05-04 10:59 -20.11977 118.13788 37522 ft 468 kts 298°
2026-05-04 10:59 -20.05464 118.01689 37522 ft 484 kts 298°
2026-05-04 11:00 -19.98693 117.89136 37522 ft 498 kts 299°
2026-05-04 11:01 -19.47865 116.95754 37520 ft 529 kts 299°
2026-05-04 11:02 -19.40488 116.82318 37520 ft 529 kts 299°
2026-05-04 11:05 -18.28524 114.82040 37520 ft 530 kts 300°
2026-05-04 11:06 -18.13427 114.55525 37520 ft 530 kts 300°
2026-05-04 11:06 -17.98294 114.29055 37520 ft 530 kts 300°
2026-05-04 11:10 -16.91427 112.45041 37520 ft 530 kts 301°
2026-05-04 11:12 -16.29588 111.40834 37520 ft 530 kts 301°
2026-05-04 11:12 -16.14048 111.14894 37520 ft 530 kts 301°
2026-05-04 11:13 -15.98474 110.88987 37520 ft 530 kts 301°
2026-05-04 11:13 -15.82869 110.63119 37520 ft 530 kts 301°
2026-05-04 11:14 -15.67165 110.37171 37563 ft 531 kts 302°
2026-05-04 11:16 -15.03866 109.32927 37607 ft 537 kts 302°
2026-05-04 11:16 -14.87922 109.06850 37609 ft 537 kts 302°
2026-05-04 11:17 -14.71987 108.80868 37611 ft 537 kts 302°
2026-05-04 11:19 -14.07639 107.77375 37621 ft 539 kts 303°
2026-05-04 11:19 -13.91294 107.51374 37623 ft 539 kts 303°
2026-05-04 11:20 -13.75022 107.25567 37625 ft 539 kts 303°
2026-05-04 11:20 -13.58641 106.99667 37627 ft 539 kts 303°
2026-05-04 11:22 -12.93100 105.96803 37636 ft 541 kts 304°
2026-05-04 11:23 -12.76612 105.71110 37638 ft 541 kts 304°
2026-05-04 11:24 -12.26989 104.94211 37520 ft 540 kts 304°
2026-05-04 11:25 -12.18782 104.81553 37520 ft 540 kts 304°
2026-05-04 11:25 -12.02165 104.55974 37520 ft 540 kts 304°
2026-05-04 11:27 -11.27090 103.41216 38762 ft 545 kts 304°
2026-05-04 11:28 -11.18615 103.28339 38962 ft 545 kts 304°
2026-05-04 11:28 -11.10414 103.15893 39155 ft 545 kts 304°
2026-05-04 11:28 -11.01758 103.02771 39360 ft 544 kts 304°
2026-05-04 11:28 -10.97695 102.96614 39455 ft 544 kts 304°
2026-05-04 11:29 -10.86988 102.80402 39527 ft 544 kts 304°
2026-05-04 11:29 -10.70026 102.54768 39527 ft 544 kts 304°
2026-05-04 11:33 -9.51635 100.77462 39644 ft 545 kts 305°
2026-05-04 11:33 -9.34619 100.52197 39649 ft 546 kts 305°
2026-05-04 11:34 -9.17637 100.27031 39648 ft 546 kts 305°
2026-05-04 11:34 -9.00416 100.01563 39647 ft 546 kts 305°
2026-05-04 11:35 -8.83301 99.76300 39646 ft 546 kts 305°
2026-05-04 11:35 -8.66118 99.50987 39645 ft 546 kts 305°
2026-05-04 11:36 -8.49018 99.25841 39645 ft 546 kts 306°
2026-05-04 11:36 -8.31861 99.00659 39644 ft 545 kts 306°
2026-05-04 11:37 -8.14595 98.75363 39643 ft 545 kts 306°
2026-05-04 11:37 -7.97436 98.50267 39643 ft 545 kts 306°
2026-05-04 11:38 -7.80479 98.25510 39642 ft 545 kts 306°
2026-05-04 11:38 -7.63213 98.00344 39641 ft 545 kts 306°
2026-05-04 11:39 -7.46218 97.75612 39641 ft 545 kts 306°
2026-05-04 11:41 -6.85672 96.87814 39639 ft 545 kts 306°
2026-05-04 11:41 -6.68679 96.63256 39638 ft 545 kts 306°
2026-05-04 11:42 -6.51339 96.38233 39638 ft 545 kts 306°
2026-05-04 11:42 -6.34100 96.13388 39637 ft 545 kts 306°
2026-05-04 11:43 -6.17063 95.88868 39637 ft 545 kts 306°
2026-05-04 11:43 -5.99712 95.63930 39636 ft 545 kts 306°
2026-05-04 11:44 -5.82478 95.39189 39636 ft 544 kts 306°
2026-05-04 11:44 -5.65186 95.14397 39635 ft 544 kts 306°
2026-05-04 11:45 -5.47843 94.89561 39635 ft 544 kts 306°
2026-05-04 11:45 -5.30649 94.64968 39634 ft 544 kts 306°
2026-05-04 11:46 -5.13318 94.40205 39634 ft 544 kts 306°
2026-05-04 11:46 -4.96292 94.15904 39634 ft 544 kts 306°
2026-05-04 11:47 -4.78912 93.91123 39633 ft 544 kts 306°
2026-05-04 11:47 -4.61823 93.66783 39633 ft 544 kts 306°
2026-05-04 11:48 -4.44559 93.42215 39633 ft 544 kts 306°
2026-05-04 11:48 -4.27453 93.17894 39632 ft 544 kts 306°
2026-05-04 11:49 -4.13518 92.98096 39632 ft 544 kts 306°
2026-05-04 11:49 -4.09167 92.91917 39632 ft 544 kts 306°
2026-05-04 11:50 -4.04985 92.85983 39663 ft 541 kts 307°
2026-05-04 11:50 -3.90162 92.64959 39569 ft 546 kts 307°
2026-05-04 11:51 -3.72566 92.40003 39569 ft 546 kts 307°
2026-05-04 11:51 -3.55162 92.15340 39569 ft 543 kts 307°
2026-05-04 11:52 -3.37758 91.90696 39569 ft 543 kts 307°
2026-05-04 11:52 -3.20348 91.66061 39569 ft 543 kts 307°
2026-05-04 11:53 -3.09084 91.50131 39569 ft 543 kts 307°
2026-05-04 11:53 -3.02231 91.40443 39569 ft 543 kts 307°
2026-05-04 11:55 -2.32528 90.42028 39569 ft 543 kts 307°
2026-05-04 11:56 -2.15094 90.17444 39569 ft 543 kts 307°
2026-05-04 11:56 -1.97376 89.93593 39569 ft 540 kts 315°
2026-05-04 11:57 -1.76429 89.71581 39569 ft 540 kts 316°
2026-05-04 11:57 -1.55790 89.49971 39569 ft 540 kts 316°
2026-05-04 11:58 -1.35016 89.28228 39569 ft 540 kts 316°
2026-05-04 11:58 -1.14361 89.06615 39569 ft 540 kts 316°
2026-05-04 11:59 -0.93523 88.84810 39569 ft 540 kts 316°
2026-05-04 11:59 -0.86803 88.77803 41021 ft 476 kts 314°
2026-05-04 11:59 -0.84637 88.75565 42685 ft 435 kts 313°
2026-05-04 11:59 -0.82472 88.73320 40390 ft 466 kts 314°
2026-05-04 12:00 -0.80303 88.71073 40697 ft 444 kts 314°
2026-05-04 12:00 -0.76668 88.67282 40098 ft 435 kts 313°
2026-05-04 12:00 -0.68634 88.58869 39590 ft 412 kts 313°
2026-05-04 12:01 -0.56669 88.46337 39523 ft 412 kts 313°
2026-05-04 12:02 -0.42832 88.31846 39523 ft 412 kts 313°
2026-05-04 12:03 -0.38891 88.27719 39523 ft 412 kts 313°
2026-05-04 12:03 -0.34923 88.23564 39523 ft 412 kts 313°
2026-05-04 12:04 -0.27044 88.15314 39678 ft 415 kts 308°
2026-05-04 12:04 -0.18965 88.06845 39706 ft 429 kts 308°
2026-05-04 12:05 -0.10572 87.98050 39707 ft 440 kts 308°
2026-05-04 12:05 -0.02131 87.89212 39708 ft 440 kts 308°
2026-05-04 12:06 0.06277 87.80410 39710 ft 440 kts 308°
2026-05-04 12:06 0.14742 87.71547 39711 ft 440 kts 308°
2026-05-04 12:07 0.23163 87.62732 39713 ft 441 kts 308°
2026-05-04 12:07 0.31617 87.53880 39715 ft 441 kts 308°
2026-05-04 12:08 0.40067 87.45034 39716 ft 441 kts 308°
2026-05-04 12:08 0.48526 87.36179 39718 ft 441 kts 308°
2026-05-04 12:09 0.56995 87.27320 39720 ft 441 kts 308°
2026-05-04 12:09 0.65486 87.18436 39722 ft 442 kts 308°
2026-05-04 12:10 0.73936 87.09594 39723 ft 442 kts 308°
2026-05-04 12:10 0.82417 87.00721 39725 ft 442 kts 308°
2026-05-04 12:11 0.90899 86.91844 39727 ft 442 kts 308°
2026-05-04 12:11 0.99409 86.82939 39729 ft 443 kts 308°
2026-05-04 12:12 1.07909 86.74043 39731 ft 443 kts 308°
2026-05-04 12:12 1.16373 86.65184 39733 ft 443 kts 307°
2026-05-04 12:14 1.50429 86.29531 39740 ft 444 kts 307°
2026-05-04 12:15 1.58938 86.20622 39742 ft 444 kts 307°
2026-05-04 12:15 1.67271 86.11611 39744 ft 443 kts 306°
2026-05-04 12:16 1.75533 86.02486 39746 ft 443 kts 306°
2026-05-04 12:16 1.83819 85.93332 39748 ft 444 kts 306°
2026-05-04 12:17 1.92054 85.84233 39750 ft 444 kts 306°
2026-05-04 12:17 2.00291 85.75131 39752 ft 444 kts 306°
2026-05-04 12:18 2.08602 85.65945 39754 ft 444 kts 306°
2026-05-04 12:18 2.16879 85.56796 39756 ft 445 kts 305°
2026-05-04 12:19 2.25177 85.47621 39758 ft 445 kts 305°
2026-05-04 12:19 2.33475 85.38445 39760 ft 445 kts 305°
2026-05-04 12:20 2.41740 85.29304 39762 ft 445 kts 305°
2026-05-04 12:20 2.50006 85.20160 39764 ft 445 kts 305°
2026-05-04 12:21 2.58332 85.10948 39766 ft 446 kts 305°
2026-05-04 12:21 2.66659 85.01733 39768 ft 446 kts 305°
2026-05-04 12:22 2.74936 84.92570 39770 ft 446 kts 305°
2026-05-04 12:22 2.83250 84.83365 39772 ft 446 kts 305°
2026-05-04 12:23 2.91568 84.74154 39774 ft 447 kts 305°
2026-05-04 12:23 2.99876 84.64952 39776 ft 447 kts 305°
2026-05-04 12:24 3.08208 84.55720 39778 ft 447 kts 305°
2026-05-04 12:24 3.16533 84.46495 39780 ft 447 kts 304°
2026-05-04 12:25 3.24847 84.37279 39782 ft 448 kts 304°
2026-05-04 12:25 3.33187 84.28034 39785 ft 448 kts 304°
2026-05-04 12:26 3.41523 84.18789 39787 ft 448 kts 304°
2026-05-04 12:26 3.49862 84.09541 39789 ft 448 kts 304°
2026-05-04 12:27 3.58082 84.00196 39791 ft 448 kts 303°
2026-05-04 12:27 3.66235 83.90805 39793 ft 448 kts 303°
2026-05-04 12:28 3.74393 83.81405 39795 ft 448 kts 303°
2026-05-04 12:28 3.82554 83.71998 39797 ft 448 kts 303°
2026-05-04 12:29 3.90720 83.62585 39799 ft 449 kts 303°
2026-05-04 12:29 3.98883 83.53169 39801 ft 449 kts 303°
2026-05-04 12:30 4.07041 83.43758 39804 ft 449 kts 303°
2026-05-04 12:30 4.15232 83.34305 39806 ft 449 kts 303°
2026-05-04 12:31 4.23408 83.24866 39808 ft 449 kts 303°
2026-05-04 12:31 4.31594 83.15413 39810 ft 450 kts 303°
2026-05-04 12:32 4.43870 83.01230 39813 ft 450 kts 303°
2026-05-04 12:33 4.52057 82.91766 39815 ft 450 kts 302°
2026-05-04 12:33 4.60252 82.82291 39817 ft 451 kts 302°
2026-05-04 12:34 4.68448 82.72810 39819 ft 451 kts 302°
2026-05-04 12:34 4.76651 82.63317 39821 ft 451 kts 302°
2026-05-04 12:35 4.84854 82.53822 39823 ft 451 kts 302°
2026-05-04 12:35 4.93056 82.44323 39825 ft 452 kts 302°
2026-05-04 12:36 5.01274 82.34803 39828 ft 452 kts 302°
2026-05-04 12:36 5.09501 82.25268 39830 ft 452 kts 302°
2026-05-04 12:37 5.17691 82.15773 39832 ft 452 kts 302°
2026-05-04 12:37 5.25908 82.06241 39834 ft 452 kts 302°
2026-05-04 12:38 5.34127 81.96705 39835 ft 453 kts 302°
2026-05-04 12:38 5.42356 81.87153 39837 ft 453 kts 302°
2026-05-04 12:39 5.50566 81.77621 39624 ft 451 kts 302°
2026-05-04 12:39 5.58752 81.68112 39523 ft 451 kts 302°
2026-05-04 12:40 5.66999 81.58560 39523 ft 452 kts 302°
2026-05-04 12:40 5.75230 81.49047 39523 ft 452 kts 302°
2026-05-04 12:41 5.83428 81.39569 39523 ft 452 kts 301°
2026-05-04 12:41 5.91663 81.30044 39523 ft 452 kts 301°
2026-05-04 12:42 5.99902 81.20509 39523 ft 453 kts 301°
2026-05-04 12:42 6.08139 81.10976 39523 ft 453 kts 301°
2026-05-04 12:43 6.16356 81.01409 39523 ft 453 kts 301°
2026-05-04 12:43 6.24555 80.91823 39523 ft 453 kts 301°
2026-05-04 12:44 6.32780 80.82203 39523 ft 453 kts 301°
2026-05-04 12:44 6.40902 80.72699 39523 ft 453 kts 301°
2026-05-04 12:45 6.49220 80.63024 39523 ft 455 kts 301°
2026-05-04 12:45 6.54137 80.57429 39524 ft 455 kts 301°
2026-05-04 12:46 6.61238 80.48474 39523 ft 444 kts 294°
2026-05-04 12:46 6.67984 80.38076 39523 ft 444 kts 293°
2026-05-04 12:47 6.74708 80.27667 39523 ft 444 kts 293°
2026-05-04 12:47 6.81393 80.17313 39523 ft 444 kts 293°
2026-05-04 12:48 6.88097 80.06922 39523 ft 444 kts 293°
2026-05-04 12:48 6.94818 79.96499 39523 ft 444 kts 292°
2026-05-04 12:49 7.01516 79.86105 39523 ft 444 kts 292°
2026-05-04 12:49 7.08200 79.75726 39523 ft 444 kts 292°
2026-05-04 12:50 7.14930 79.65269 39523 ft 444 kts 292°
2026-05-04 12:50 7.21626 79.54859 39523 ft 444 kts 292°
2026-05-04 12:51 7.28321 79.44442 39523 ft 444 kts 293°
2026-05-04 12:51 7.35016 79.34021 39523 ft 444 kts 293°
2026-05-04 12:52 7.41698 79.23611 39523 ft 444 kts 293°
2026-05-04 12:52 7.48402 79.13161 39523 ft 444 kts 293°
2026-05-04 12:53 7.55057 79.02780 39523 ft 443 kts 293°
2026-05-04 12:53 7.61685 78.92434 39523 ft 443 kts 293°
2026-05-04 12:54 7.68423 78.81909 39523 ft 443 kts 293°
2026-05-04 12:54 7.75055 78.71543 39523 ft 443 kts 293°
2026-05-04 12:55 7.81721 78.61116 39523 ft 443 kts 293°
2026-05-04 12:55 7.88397 78.50665 39523 ft 443 kts 293°
2026-05-04 12:56 7.95024 78.40284 39647 ft 444 kts 292°
2026-05-04 12:56 8.01789 78.29665 39734 ft 452 kts 293°
2026-05-04 12:57 8.08552 78.19055 39733 ft 452 kts 293°
2026-05-04 12:57 8.15338 78.08403 39732 ft 452 kts 293°
2026-05-04 12:58 8.22114 77.97758 39731 ft 452 kts 293°
2026-05-04 12:58 8.28873 77.87134 39544 ft 450 kts 293°
2026-05-04 12:59 8.35629 77.76505 39523 ft 450 kts 293°
2026-05-04 12:59 8.48348 77.56470 39523 ft 450 kts 293°
2026-05-04 13:00 8.61857 77.35161 39523 ft 450 kts 293°
2026-05-04 13:00 8.75251 77.13998 39523 ft 450 kts 293°
2026-05-04 13:01 8.83440 77.01044 39523 ft 450 kts 293°
2026-05-04 13:01 8.96862 76.79781 39523 ft 449 kts 293°
2026-05-04 13:02 9.10261 76.58523 39523 ft 449 kts 293°
2026-05-04 13:02 9.23615 76.37298 39523 ft 449 kts 293°
2026-05-04 13:02 9.30138 76.26935 39884 ft 417 kts 298°
2026-05-04 13:03 9.36426 76.16920 39987 ft 420 kts 298°
2026-05-04 13:03 9.48922 75.96993 39984 ft 422 kts 298°
2026-05-04 13:04 9.61476 75.76942 39979 ft 423 kts 298°
2026-05-04 13:04 9.74063 75.56805 39976 ft 424 kts 297°
2026-05-04 13:05 9.86516 75.36849 39972 ft 425 kts 297°
2026-05-04 13:05 9.92992 75.26460 39751 ft 423 kts 297°
2026-05-04 13:05 9.99231 75.16441 39525 ft 423 kts 297°
2026-05-04 13:06 10.11761 74.96292 39523 ft 424 kts 297°
2026-05-04 13:06 10.17994 74.86258 39795 ft 421 kts 296°
2026-05-04 13:06 10.24035 74.76530 39823 ft 416 kts 295°
2026-05-04 13:07 10.36505 74.56409 39822 ft 416 kts 295°
2026-05-04 13:07 10.48837 74.36473 39820 ft 417 kts 295°
2026-05-04 13:08 10.61105 74.16606 39819 ft 417 kts 295°
2026-05-04 13:08 10.73362 73.96724 39828 ft 415 kts 295°
2026-05-04 13:09 10.85571 73.76880 39817 ft 415 kts 295°
2026-05-04 13:09 10.91696 73.66916 39531 ft 413 kts 295°
2026-05-04 13:09 10.97727 73.57090 39523 ft 413 kts 295°
2026-05-04 13:10 11.09883 73.37262 39523 ft 414 kts 295°
2026-05-04 13:10 11.22027 73.17417 39523 ft 414 kts 295°
2026-05-04 13:11 11.34166 72.97543 39523 ft 414 kts 295°
2026-05-04 13:11 11.46286 72.77664 39523 ft 414 kts 295°
2026-05-04 13:12 11.58468 72.57647 39523 ft 415 kts 295°
2026-05-04 13:12 11.70449 72.37925 39523 ft 415 kts 295°
2026-05-04 13:13 11.82681 72.17756 39523 ft 415 kts 295°
2026-05-04 13:13 11.94974 71.97908 39523 ft 419 kts 299°
2026-05-04 13:14 12.08817 71.78774 39523 ft 420 kts 299°
2026-05-04 13:14 12.22518 71.59831 39523 ft 420 kts 299°
2026-05-04 13:15 12.36494 71.40474 39523 ft 420 kts 299°
2026-05-04 13:15 12.50172 71.21506 39523 ft 420 kts 299°
2026-05-04 13:16 12.64193 71.02035 39523 ft 420 kts 299°
2026-05-04 13:16 12.78002 70.82822 39523 ft 420 kts 299°
2026-05-04 13:17 12.91826 70.63553 39523 ft 420 kts 299°
2026-05-04 13:17 13.05630 70.44276 39523 ft 420 kts 299°
2026-05-04 13:18 13.19019 70.25407 39523 ft 420 kts 299°
2026-05-04 13:18 13.33092 70.05529 39523 ft 421 kts 299°
2026-05-04 13:19 13.46833 69.86076 39523 ft 421 kts 299°
2026-05-04 13:19 13.60484 69.66713 39523 ft 421 kts 298°
2026-05-04 13:20 13.74229 69.47174 39523 ft 421 kts 298°
2026-05-04 13:20 13.87860 69.27756 39523 ft 421 kts 298°
2026-05-04 13:21 14.01554 69.08213 39523 ft 421 kts 298°
2026-05-04 13:21 14.15220 68.88779 39523 ft 421 kts 299°
2026-05-04 13:22 14.29003 68.69228 39523 ft 421 kts 299°
2026-05-04 13:22 14.42681 68.49782 39523 ft 421 kts 299°
2026-05-04 13:23 14.56264 68.30424 39523 ft 421 kts 299°
2026-05-04 13:23 14.70122 68.10629 39523 ft 421 kts 298°
2026-05-04 13:24 14.83775 67.91079 39523 ft 421 kts 298°
2026-05-04 13:24 14.97455 67.71445 39523 ft 421 kts 298°
2026-05-04 13:25 15.17968 67.41916 39523 ft 421 kts 298°
2026-05-04 13:25 15.31555 67.22300 39523 ft 422 kts 298°
2026-05-04 13:26 15.38339 67.12487 39780 ft 426 kts 298°
2026-05-04 13:26 15.45331 67.02355 39827 ft 434 kts 298°
2026-05-04 13:26 15.52393 66.92122 39852 ft 440 kts 297°
2026-05-04 13:27 15.59513 66.81844 39852 ft 440 kts 298°
2026-05-04 13:27 15.66694 66.71583 39852 ft 440 kts 298°
2026-05-04 13:28 15.73872 66.61315 39852 ft 440 kts 298°
2026-05-04 13:28 15.81039 66.51048 39852 ft 440 kts 298°
2026-05-04 13:29 15.88209 66.40762 39852 ft 440 kts 298°
2026-05-04 13:29 15.95369 66.30478 39851 ft 440 kts 298°
2026-05-04 13:30 16.02537 66.20169 39851 ft 440 kts 298°
2026-05-04 13:30 16.09685 66.09873 39851 ft 440 kts 297°
2026-05-04 13:31 16.16830 65.99567 39851 ft 440 kts 297°
2026-05-04 13:31 16.23969 65.89257 39851 ft 440 kts 297°
2026-05-04 13:32 16.31061 65.79000 39850 ft 440 kts 297°
2026-05-04 13:32 16.38238 65.68604 39850 ft 440 kts 297°
2026-05-04 13:33 16.45366 65.58267 39850 ft 440 kts 297°
2026-05-04 13:33 16.52513 65.47885 39850 ft 440 kts 297°
2026-05-04 13:34 16.59632 65.37531 39849 ft 440 kts 297°
2026-05-04 13:34 16.66742 65.27177 39849 ft 440 kts 297°
2026-05-04 13:35 16.77372 65.11667 39849 ft 440 kts 297°
2026-05-04 13:36 16.84447 65.01327 39849 ft 440 kts 297°
2026-05-04 13:36 16.91581 64.90885 39848 ft 440 kts 297°
2026-05-04 13:37 16.98662 64.80508 39848 ft 440 kts 297°
2026-05-04 13:37 17.05739 64.70122 39848 ft 440 kts 297°
2026-05-04 13:38 17.12823 64.59712 39848 ft 440 kts 297°
2026-05-04 13:38 17.19899 64.49302 39847 ft 440 kts 297°
2026-05-04 13:39 17.26965 64.38899 39847 ft 440 kts 297°
2026-05-04 13:39 17.34195 64.28578 39847 ft 441 kts 298°
2026-05-04 13:40 17.41472 64.18247 39847 ft 441 kts 298°
2026-05-04 13:40 17.48723 64.07938 39846 ft 441 kts 298°
2026-05-04 13:41 17.55996 63.97581 39846 ft 441 kts 298°
2026-05-04 13:41 17.63219 63.87281 39846 ft 441 kts 298°
2026-05-04 13:42 17.74080 63.71762 39846 ft 441 kts 298°
2026-05-04 13:42 17.81311 63.61412 39845 ft 441 kts 298°
2026-05-04 13:43 17.88537 63.51053 39845 ft 441 kts 298°
2026-05-04 13:43 17.95784 63.40649 39845 ft 441 kts 298°
2026-05-04 13:44 18.02948 63.30347 39844 ft 441 kts 298°
2026-05-04 13:44 18.10180 63.19931 39844 ft 441 kts 298°
2026-05-04 13:45 18.17387 63.09538 39845 ft 441 kts 298°
2026-05-04 13:45 18.20998 63.04320 40087 ft 445 kts 301°
2026-05-04 13:45 18.24660 62.99025 40230 ft 452 kts 301°
2026-05-04 13:46 18.32058 62.88320 40243 ft 454 kts 301°
2026-05-04 13:46 18.39469 62.77588 40250 ft 455 kts 301°
2026-05-04 13:47 18.46882 62.66836 40256 ft 455 kts 301°
2026-05-04 13:47 18.54320 62.56035 40263 ft 455 kts 301°
2026-05-04 13:48 18.61691 62.45238 40270 ft 455 kts 300°
2026-05-04 13:48 18.69001 62.34433 40277 ft 455 kts 300°
2026-05-04 13:49 18.76333 62.23576 40284 ft 456 kts 300°
2026-05-04 13:49 18.83659 62.12710 40291 ft 456 kts 300°
2026-05-04 13:50 18.90980 62.01832 40298 ft 456 kts 300°
2026-05-04 13:50 18.98306 61.90928 40306 ft 456 kts 301°
2026-05-04 13:51 19.05628 61.80012 40313 ft 457 kts 301°
2026-05-04 13:51 19.12949 61.69080 40321 ft 457 kts 301°